Wetterdaten: Woche 22.12.14 - 28.12.14 (KW52)
Datum Zeit Temp. Aussen +5cm Feuchte Auss Luftdruck Regen Sonnenschein Regendauer Solar Windben
22.12.2014 00:00 8,1 C 6,7 C 90 % 1022,0 hPa 0,0 l/m 0,00 h 0,00 h 0 W/m 38,1 km/h (5 Bft)
22.12.2014 01:00 8,2 C 7,0 C 89 % 1021,2 hPa 0,0 l/m 0,00 h 0,00 h 0 W/m 44,1 km/h (6 Bft)
22.12.2014 02:00 8,4 C 7,2 C 89 % 1021,0 hPa 0,0 l/m 0,00 h 0,00 h 0 W/m 48,0 km/h (6 Bft)
22.12.2014 03:00 8,5 C 7,2 C 90 % 1020,6 hPa 0,0 l/m 0,00 h 0,00 h 0 W/m 43,9 km/h (6 Bft)
22.12.2014 04:00 8,6 C 7,2 C 91 % 1020,0 hPa 0,0 l/m 0,00 h 0,00 h 0 W/m 47,3 km/h (6 Bft)
22.12.2014 05:00 8,6 C 7,2 C 91 % 1019,8 hPa 0,0 l/m 0,00 h 0,00 h 0 W/m 45,2 km/h (6 Bft)
22.12.2014 06:00 8,7 C 7,2 C 91 % 1019,5 hPa 0,0 l/m 0,00 h 0,00 h 0 W/m 45,4 km/h (6 Bft)
22.12.2014 07:00 8,5 C 7,2 C 92 % 1019,4 hPa 0,0 l/m 0,00 h 0,00 h 0 W/m 46,2 km/h (6 Bft)
22.12.2014 08:00 8,5 C 7,2 C 92 % 1019,4 hPa 0,0 l/m 0,00 h 0,00 h 3 W/m 47,4 km/h (6 Bft)
22.12.2014 09:00 8,4 C 7,2 C 91 % 1019,5 hPa 0,0 l/m 0,00 h 0,00 h 10 W/m 49,3 km/h (6 Bft)
22.12.2014 10:00 8,6 C 7,2 C 91 % 1019,6 hPa 0,0 l/m 0,00 h 0,00 h 19 W/m 47,1 km/h (6 Bft)
22.12.2014 11:00 8,6 C 7,4 C 93 % 1019,0 hPa 0,0 l/m 0,00 h 0,00 h 32 W/m 43,9 km/h (6 Bft)
22.12.2014 12:00 9,0 C 7,9 C 93 % 1018,2 hPa 0,0 l/m 0,00 h 0,00 h 44 W/m 46,2 km/h (6 Bft)
22.12.2014 13:00 9,6 C 8,3 C 92 % 1017,8 hPa 0,0 l/m 0,00 h 0,00 h 24 W/m 45,7 km/h (6 Bft)
22.12.2014 14:00 9,9 C 8,3 C 92 % 1017,7 hPa 0,0 l/m 0,00 h 0,10 h 11 W/m 37,2 km/h (5 Bft)
22.12.2014 15:00 10,4 C 9,1 C 94 % 1017,5 hPa 0,0 l/m 0,00 h 0,00 h 13 W/m 37,9 km/h (5 Bft)
22.12.2014 16:00 10,7 C 9,4 C 93 % 1017,5 hPa 0,0 l/m 0,00 h 0,00 h 7 W/m 39,3 km/h (6 Bft)
22.12.2014 17:00 11,1 C 9,8 C 91 % 1017,7 hPa 0,0 l/m 0,00 h 0,00 h 0 W/m 39,7 km/h (6 Bft)
22.12.2014 18:00 11,5 C 10,0 C 90 % 1017,8 hPa 0,0 l/m 0,00 h 0,00 h 0 W/m 41,5 km/h (6 Bft)
22.12.2014 19:00 11,7 C 10,0 C 90 % 1017,7 hPa 0,0 l/m 0,00 h 0,00 h 0 W/m 43,6 km/h (6 Bft)
22.12.2014 20:00 11,7 C 10,2 C 90 % 1017,7 hPa 0,0 l/m 0,00 h 0,00 h 0 W/m 42,6 km/h (6 Bft)
22.12.2014 21:00 11,7 C 10,2 C 90 % 1017,7 hPa 0,0 l/m 0,00 h 0,00 h 0 W/m 39,3 km/h (6 Bft)
22.12.2014 22:00 11,6 C 10,0 C 89 % 1017,8 hPa 0,0 l/m 0,00 h 0,00 h 0 W/m 39,0 km/h (6 Bft)
22.12.2014 23:00 11,5 C 10,0 C 87 % 1017,6 hPa 0,0 l/m 0,00 h 0,00 h 0 W/m 36,6 km/h (5 Bft)
23.12.2014 00:00 11,7 C 10,0 C 86 % 1017,6 hPa 0,0 l/m 0,00 h 0,00 h 0 W/m 42,1 km/h (6 Bft)
23.12.2014 01:00 11,6 C 10,0 C 85 % 1017,9 hPa 0,0 l/m 0,00 h 0,00 h 0 W/m 42,4 km/h (6 Bft)
23.12.2014 02:00 11,4 C 10,0 C 84 % 1018,2 hPa 0,0 l/m 0,00 h 0,00 h 0 W/m 41,6 km/h (6 Bft)
23.12.2014 03:00 11,3 C 10,0 C 85 % 1018,5 hPa 0,0 l/m 0,00 h 0,00 h 0 W/m 38,2 km/h (5 Bft)
23.12.2014 04:00 11,2 C 9,7 C 85 % 1018,5 hPa 0,0 l/m 0,00 h 0,00 h 0 W/m 36,1 km/h (5 Bft)
23.12.2014 05:00 11,1 C 9,4 C 85 % 1018,4 hPa 0,0 l/m 0,00 h 0,00 h 0 W/m 34,8 km/h (5 Bft)
23.12.2014 06:00 11,0 C 9,4 C 84 % 1018,5 hPa 0,0 l/m 0,00 h 0,00 h 0 W/m 33,8 km/h (5 Bft)
23.12.2014 07:00 10,9 C 9,4 C 85 % 1018,3 hPa 0,0 l/m 0,00 h 0,00 h 0 W/m 34,0 km/h (5 Bft)
23.12.2014 08:00 10,6 C 9,2 C 88 % 1018,6 hPa 0,0 l/m 0,00 h 0,00 h 2 W/m 32,6 km/h (5 Bft)
23.12.2014 09:00 10,3 C 8,6 C 92 % 1018,6 hPa 0,0 l/m 0,00 h 0,17 h 10 W/m 37,9 km/h (5 Bft)
23.12.2014 10:00 10,4 C 9,2 C 91 % 1018,6 hPa 0,0 l/m 0,00 h 0,00 h 26 W/m 33,6 km/h (5 Bft)
23.12.2014 11:00 11,1 C 10,0 C 87 % 1018,8 hPa 0,0 l/m 0,00 h 0,00 h 63 W/m 41,5 km/h (6 Bft)
23.12.2014 12:00 11,3 C 10,1 C 88 % 1018,7 hPa 0,0 l/m 0,00 h 0,00 h 85 W/m 39,2 km/h (6 Bft)
23.12.2014 13:00 11,1 C 10,0 C 90 % 1018,3 hPa 0,0 l/m 0,00 h 0,00 h 44 W/m 36,2 km/h (5 Bft)
23.12.2014 14:00 11,2 C 10,0 C 89 % 1017,9 hPa 0,0 l/m 0,00 h 0,00 h 43 W/m 37,7 km/h (5 Bft)
23.12.2014 15:00 11,0 C 9,7 C 89 % 1018,0 hPa 0,0 l/m 0,00 h 0,00 h 23 W/m 34,3 km/h (5 Bft)
23.12.2014 16:00 10,5 C 8,8 C 92 % 1018,2 hPa 0,0 l/m 0,00 h 0,10 h 5 W/m 30,3 km/h (5 Bft)
23.12.2014 17:00 10,0 C 8,5 C 94 % 1017,9 hPa 0,0 l/m 0,00 h 0,00 h 0 W/m 22,6 km/h (4 Bft)
23.12.2014 18:00 10,3 C 9,0 C 91 % 1017,8 hPa 0,0 l/m 0,00 h 0,00 h 0 W/m 27,7 km/h (4 Bft)
23.12.2014 19:00 10,3 C 8,9 C 89 % 1017,8 hPa 0,0 l/m 0,00 h 0,00 h 0 W/m 28,5 km/h (4 Bft)
23.12.2014 20:00 10,2 C 8,9 C 88 % 1017,6 hPa 0,0 l/m 0,00 h 0,00 h 0 W/m 30,4 km/h (5 Bft)
23.12.2014 21:00 10,0 C 8,9 C 88 % 1017,4 hPa 0,0 l/m 0,00 h 0,00 h 0 W/m 29,7 km/h (5 Bft)
23.12.2014 22:00 9,9 C 8,7 C 87 % 1017,2 hPa 0,0 l/m 0,00 h 0,00 h 0 W/m 28,0 km/h (4 Bft)
23.12.2014 23:00 9,7 C 8,3 C 85 % 1017,1 hPa 0,0 l/m 0,00 h 0,00 h 0 W/m 30,3 km/h (5 Bft)
24.12.2014 00:00 9,7 C 8,3 C 83 % 1017,1 hPa 0,0 l/m 0,00 h 0,00 h 0 W/m 33,8 km/h (5 Bft)
24.12.2014 01:00 9,4 C 7,9 C 82 % 1016,8 hPa 0,0 l/m 0,00 h 0,00 h 0 W/m 32,9 km/h (5 Bft)
24.12.2014 02:00 9,1 C 7,8 C 82 % 1016,7 hPa 0,0 l/m 0,00 h 0,00 h 0 W/m 35,7 km/h (5 Bft)
24.12.2014 03:00 8,8 C 7,5 C 81 % 1015,9 hPa 0,0 l/m 0,00 h 0,00 h 0 W/m 35,0 km/h (5 Bft)
24.12.2014 04:00 8,7 C 7,5 C 81 % 1015,1 hPa 0,0 l/m 0,00 h 0,00 h 0 W/m 31,8 km/h (5 Bft)
24.12.2014 05:00 8,9 C 7,8 C 81 % 1014,7 hPa 0,0 l/m 0,00 h 0,00 h 0 W/m 35,9 km/h (5 Bft)
24.12.2014 06:00 8,9 C 7,8 C 82 % 1014,5 hPa 0,0 l/m 0,00 h 0,00 h 0 W/m 40,2 km/h (6 Bft)
24.12.2014 07:00 8,9 C 7,6 C 84 % 1014,5 hPa 0,0 l/m 0,00 h 0,20 h 0 W/m 39,5 km/h (6 Bft)
24.12.2014 08:00 8,6 C 7,1 C 86 % 1014,6 hPa 0,0 l/m 0,00 h 0,07 h 5 W/m 40,9 km/h (6 Bft)
24.12.2014 09:00 8,5 C 6,8 C 89 % 1014,8 hPa 0,0 l/m 0,00 h 0,67 h 12 W/m 40,4 km/h (6 Bft)
24.12.2014 10:00 8,3 C 6,9 C 92 % 1014,8 hPa 0,2 l/m 0,00 h 0,23 h 26 W/m 40,1 km/h (6 Bft)
24.12.2014 11:00 8,7 C 7,5 C 93 % 1014,8 hPa 0,0 l/m 0,00 h 0,23 h 43 W/m 44,3 km/h (6 Bft)
24.12.2014 12:00 8,7 C 7,2 C 95 % 1014,4 hPa 0,2 l/m 0,00 h 0,97 h 42 W/m 38,1 km/h (5 Bft)
24.12.2014 13:00 8,7 C 7,2 C 96 % 1014,0 hPa 0,4 l/m 0,00 h 1,00 h 33 W/m 38,5 km/h (5 Bft)
24.12.2014 14:00 8,8 C 7,5 C 97 % 1013,9 hPa 0,4 l/m 0,00 h 0,73 h 24 W/m 36,8 km/h (5 Bft)
24.12.2014 15:00 9,0 C 7,8 C 97 % 1014,2 hPa 0,2 l/m 0,00 h 0,07 h 10 W/m 33,2 km/h (5 Bft)
24.12.2014 16:00 8,4 C 6,8 C 97 % 1015,0 hPa 1,6 l/m 0,00 h 0,17 h 0 W/m 17,3 km/h (3 Bft)
24.12.2014 17:00 7,2 C 5,7 C 97 % 1015,5 hPa 0,2 l/m 0,00 h 0,57 h 0 W/m 11,0 km/h (2 Bft)
24.12.2014 18:00 6,9 C 5,6 C 97 % 1016,2 hPa 0,4 l/m 0,00 h 0,97 h 0 W/m 15,4 km/h (3 Bft)
24.12.2014 19:00 6,7 C 5,4 C 97 % 1017,2 hPa 0,4 l/m 0,00 h 0,60 h 0 W/m 20,1 km/h (4 Bft)
24.12.2014 20:00 6,2 C 5,0 C 97 % 1017,9 hPa 0,0 l/m 0,00 h 0,00 h 0 W/m 16,2 km/h (3 Bft)
24.12.2014 21:00 5,9 C 4,7 C 97 % 1018,9 hPa 0,0 l/m 0,00 h 0,00 h 0 W/m 17,9 km/h (3 Bft)
24.12.2014 22:00 5,3 C 3,7 C 93 % 1019,4 hPa 0,0 l/m 0,00 h 0,00 h 0 W/m 15,3 km/h (3 Bft)
24.12.2014 23:00 4,9 C 3,3 C 90 % 1019,7 hPa 0,0 l/m 0,00 h 0,00 h 0 W/m 18,8 km/h (3 Bft)
25.12.2014 00:00 4,7 C 3,2 C 91 % 1020,1 hPa 0,0 l/m 0,00 h 0,00 h 0 W/m 17,5 km/h (3 Bft)
25.12.2014 01:00 4,4 C 3,0 C 90 % 1020,3 hPa 0,0 l/m 0,00 h 0,00 h 0 W/m 18,6 km/h (3 Bft)
25.12.2014 02:00 4,3 C 2,8 C 88 % 1020,5 hPa 0,0 l/m 0,00 h 0,00 h 0 W/m 23,3 km/h (4 Bft)
25.12.2014 03:00 4,1 C 2,8 C 88 % 1020,8 hPa 0,0 l/m 0,00 h 0,00 h 0 W/m 22,7 km/h (4 Bft)
25.12.2014 04:00 3,9 C 2,6 C 89 % 1020,6 hPa 0,0 l/m 0,00 h 0,00 h 0 W/m 24,0 km/h (4 Bft)
25.12.2014 05:00 3,8 C 2,3 C 90 % 1020,5 hPa 0,0 l/m 0,00 h 0,00 h 0 W/m 26,4 km/h (4 Bft)
25.12.2014 06:00 3,7 C 2,3 C 90 % 1020,9 hPa 0,0 l/m 0,00 h 0,00 h 0 W/m 25,2 km/h (4 Bft)
25.12.2014 07:00 3,6 C 2,2 C 91 % 1021,4 hPa 0,0 l/m 0,00 h 0,00 h 0 W/m 24,3 km/h (4 Bft)
25.12.2014 08:00 3,7 C 2,5 C 92 % 1021,6 hPa 0,0 l/m 0,00 h 0,00 h 8 W/m 25,7 km/h (4 Bft)
25.12.2014 09:00 4,1 C 3,2 C 92 % 1022,2 hPa 0,0 l/m 0,27 h 0,00 h 37 W/m 26,0 km/h (4 Bft)
25.12.2014 10:00 4,7 C 4,0 C 92 % 1022,9 hPa 0,0 l/m 0,00 h 0,00 h 51 W/m 26,5 km/h (4 Bft)
25.12.2014 11:00 5,5 C 4,6 C 90 % 1023,2 hPa 0,0 l/m 0,57 h 0,00 h 143 W/m 26,6 km/h (4 Bft)
25.12.2014 12:00 6,1 C 5,4 C 89 % 1023,2 hPa 0,0 l/m 0,83 h 0,00 h 166 W/m 28,2 km/h (4 Bft)
25.12.2014 13:00 5,1 C 3,2 C 89 % 1023,5 hPa 3,4 l/m 0,07 h 0,30 h 38 W/m 24,2 km/h (4 Bft)
25.12.2014 14:00 4,4 C 3,3 C 94 % 1023,6 hPa 0,0 l/m 0,00 h 0,00 h 67 W/m 16,9 km/h (3 Bft)
25.12.2014 15:00 4,8 C 3,5 C 95 % 1023,9 hPa 0,0 l/m 0,20 h 0,00 h 44 W/m 16,5 km/h (3 Bft)
25.12.2014 16:00 4,7 C 3,2 C 95 % 1024,6 hPa 0,0 l/m 0,00 h 0,00 h 9 W/m 15,5 km/h (3 Bft)
25.12.2014 17:00 4,4 C 2,7 C 95 % 1025,2 hPa 0,2 l/m 0,00 h 0,00 h 0 W/m 15,5 km/h (3 Bft)
25.12.2014 18:00 3,5 C 1,5 C 94 % 1025,7 hPa 0,0 l/m 0,00 h 0,00 h 0 W/m 11,6 km/h (2 Bft)
25.12.2014 19:00 2,7 C 1,1 C 94 % 1026,3 hPa 0,0 l/m 0,00 h 0,00 h 0 W/m 10,8 km/h (2 Bft)
25.12.2014 20:00 2,2 C 0,7 C 95 % 1026,8 hPa 0,0 l/m 0,00 h 0,00 h 0 W/m 9,0 km/h (2 Bft)
25.12.2014 21:00 1,9 C 0,7 C 95 % 1027,4 hPa 0,0 l/m 0,00 h 0,00 h 0 W/m 9,5 km/h (2 Bft)
25.12.2014 22:00 2,2 C 0,9 C 96 % 1027,6 hPa 0,0 l/m 0,00 h 0,00 h 0 W/m 9,9 km/h (2 Bft)
25.12.2014 23:00 1,8 C 0,6 C 96 % 1027,9 hPa 0,0 l/m 0,00 h 0,00 h 0 W/m 9,5 km/h (2 Bft)
26.12.2014 00:00 1,5 C 0,1 C 96 % 1028,2 hPa 0,0 l/m 0,00 h 0,00 h 0 W/m 8,8 km/h (2 Bft)
26.12.2014 01:00 1,3 C -0,0 C 96 % 1028,3 hPa 0,0 l/m 0,00 h 0,00 h 0 W/m 7,8 km/h (2 Bft)
26.12.2014 02:00 1,0 C -0,4 C 97 % 1028,6 hPa 0,0 l/m 0,00 h 0,00 h 0 W/m 6,5 km/h (2 Bft)
26.12.2014 03:00 1,0 C 0,5 C 97 % 1028,6 hPa 0,2 l/m 0,00 h 0,37 h 0 W/m 7,4 km/h (2 Bft)
26.12.2014 04:00 1,5 C 0,4 C 97 % 1028,6 hPa 0,0 l/m 0,00 h 0,13 h 0 W/m 8,3 km/h (2 Bft)
26.12.2014 05:00 1,3 C 0,2 C 97 % 1028,7 hPa 0,2 l/m 0,00 h 0,00 h 0 W/m 7,8 km/h (2 Bft)
26.12.2014 06:00 1,2 C 0,4 C 97 % 1028,6 hPa 0,0 l/m 0,00 h 0,00 h 0 W/m 8,2 km/h (2 Bft)
26.12.2014 07:00 1,6 C 0,9 C 97 % 1029,0 hPa 0,0 l/m 0,00 h 0,00 h 0 W/m 9,9 km/h (2 Bft)
26.12.2014 08:00 1,7 C 0,8 C 98 % 1029,2 hPa 0,0 l/m 0,00 h 0,37 h 6 W/m 6,7 km/h (2 Bft)
26.12.2014 09:00 1,7 C 0,9 C 98 % 1029,3 hPa 0,0 l/m 0,03 h 0,00 h 37 W/m 9,2 km/h (2 Bft)
26.12.2014 10:00 2,1 C 1,4 C 98 % 1029,5 hPa 0,0 l/m 0,20 h 0,00 h 77 W/m 10,6 km/h (2 Bft)
26.12.2014 11:00 3,1 C 2,3 C 98 % 1029,3 hPa 0,0 l/m 0,83 h 0,00 h 167 W/m 10,8 km/h (2 Bft)
26.12.2014 12:00 3,9 C 2,6 C 98 % 1028,6 hPa 0,0 l/m 0,97 h 0,00 h 172 W/m 9,4 km/h (2 Bft)
26.12.2014 13:00 4,4 C 3,3 C 98 % 1028,0 hPa 0,0 l/m 0,33 h 0,00 h 122 W/m 9,6 km/h (2 Bft)
26.12.2014 14:00 4,4 C 3,3 C 97 % 1027,5 hPa 0,0 l/m 0,00 h 0,00 h 79 W/m 9,4 km/h (2 Bft)
26.12.2014 15:00 4,2 C 2,9 C 96 % 1027,0 hPa 0,0 l/m 0,00 h 0,00 h 40 W/m 7,2 km/h (2 Bft)
26.12.2014 16:00 3,9 C 2,4 C 95 % 1026,4 hPa 0,0 l/m 0,00 h 0,00 h 10 W/m 7,3 km/h (2 Bft)
26.12.2014 17:00 3,5 C 1,8 C 95 % 1025,8 hPa 0,0 l/m 0,00 h 0,17 h 0 W/m 7,6 km/h (2 Bft)
26.12.2014 18:00 3,0 C 1,3 C 95 % 1024,9 hPa 0,0 l/m 0,00 h 0,00 h 0 W/m 7,8 km/h (2 Bft)
26.12.2014 19:00 2,9 C 1,4 C 96 % 1024,0 hPa 0,0 l/m 0,00 h 0,00 h 0 W/m 6,9 km/h (2 Bft)
26.12.2014 20:00 2,3 C 0,4 C 96 % 1022,9 hPa 0,0 l/m 0,00 h 0,00 h 0 W/m 7,2 km/h (2 Bft)
26.12.2014 21:00 1,6 C 0,4 C 96 % 1021,3 hPa 0,0 l/m 0,00 h 0,00 h 0 W/m 10,6 km/h (2 Bft)
26.12.2014 22:00 1,5 C 0,6 C 96 % 1019,9 hPa 0,0 l/m 0,00 h 0,00 h 0 W/m 12,9 km/h (3 Bft)
26.12.2014 23:00 1,8 C 1,1 C 96 % 1018,1 hPa 0,0 l/m 0,00 h 0,00 h 0 W/m 15,9 km/h (3 Bft)
27.12.2014 00:00 2,0 C 1,1 C 95 % 1015,9 hPa 0,0 l/m 0,00 h 0,00 h 0 W/m 19,3 km/h (3 Bft)
27.12.2014 01:00 2,1 C 1,1 C 93 % 1013,4 hPa 0,0 l/m 0,00 h 0,00 h 0 W/m 23,3 km/h (4 Bft)
27.12.2014 02:00 2,2 C 1,1 C 92 % 1011,1 hPa 0,0 l/m 0,00 h 0,00 h 0 W/m 30,5 km/h (5 Bft)
27.12.2014 03:00 2,4 C 1,1 C 92 % 1008,8 hPa 0,4 l/m 0,00 h 0,67 h 0 W/m 32,9 km/h (5 Bft)
27.12.2014 04:00 1,7 C 0,1 C 93 % 1005,8 hPa 1,6 l/m 0,00 h 1,00 h 0 W/m 39,1 km/h (6 Bft)
27.12.2014 05:00 0,7 C -0,8 C 95 % 1002,4 hPa 1,4 l/m 0,00 h 1,00 h 0 W/m 47,3 km/h (6 Bft)
27.12.2014 06:00 0,6 C -1,0 C 96 % 999,5 hPa 0,8 l/m 0,00 h 0,97 h 0 W/m 49,3 km/h (6 Bft)
27.12.2014 07:00 0,3 C -1,1 C 97 % 997,9 hPa 0,6 l/m 0,00 h 0,90 h 0 W/m 38,8 km/h (5 Bft)
27.12.2014 08:00 0,2 C -1,1 C 97 % 996,8 hPa 0,4 l/m 0,00 h 1,00 h 0 W/m 39,8 km/h (6 Bft)
27.12.2014 09:00 0,2 C -1,1 C 97 % 996,3 hPa 0,8 l/m 0,00 h 1,00 h 7 W/m 35,1 km/h (5 Bft)
27.12.2014 10:00 0,3 C -1,1 C 98 % 996,1 hPa 0,6 l/m 0,00 h 1,00 h 14 W/m 32,1 km/h (5 Bft)
27.12.2014 11:00 0,3 C -0,7 C 98 % 996,0 hPa 0,8 l/m 0,00 h 1,00 h 25 W/m 30,3 km/h (5 Bft)
27.12.2014 12:00 0,5 C -0,7 C 98 % 995,8 hPa 1,0 l/m 0,00 h 0,97 h 39 W/m 26,0 km/h (4 Bft)
27.12.2014 13:00 0,4 C -1,1 C 98 % 995,8 hPa 0,8 l/m 0,00 h 1,00 h 37 W/m 20,8 km/h (4 Bft)
27.12.2014 14:00 0,3 C -1,1 C 98 % 996,0 hPa 0,6 l/m 0,00 h 1,00 h 25 W/m 19,3 km/h (3 Bft)
27.12.2014 15:00 0,3 C -0,7 C 98 % 996,5 hPa 0,4 l/m 0,00 h 1,00 h 13 W/m 22,2 km/h (4 Bft)
27.12.2014 16:00 0,5 C -0,6 C 98 % 997,3 hPa 0,4 l/m 0,00 h 1,00 h 6 W/m 26,9 km/h (4 Bft)
27.12.2014 17:00 0,4 C -0,6 C 98 % 998,3 hPa 0,2 l/m 0,00 h 0,77 h 0 W/m 28,5 km/h (4 Bft)
27.12.2014 18:00 0,2 C -0,6 C 98 % 999,5 hPa 0,2 l/m 0,00 h 0,20 h 0 W/m 33,2 km/h (5 Bft)
27.12.2014 19:00 -0,1 C -1,0 C 98 % 1000,8 hPa 0,0 l/m 0,00 h 0,00 h 0 W/m 35,8 km/h (5 Bft)
27.12.2014 20:00 -0,1 C -1,1 C 91 % 1002,1 hPa 0,2 l/m 0,00 h 0,00 h 0 W/m 35,6 km/h (5 Bft)
27.12.2014 21:00 -0,1 C -1,1 C 82 % 1003,4 hPa 0,0 l/m 0,00 h 0,00 h 0 W/m 37,8 km/h (5 Bft)
27.12.2014 22:00 -0,2 C -1,6 C 81 % 1004,8 hPa 0,0 l/m 0,00 h 0,00 h 0 W/m 34,8 km/h (5 Bft)
27.12.2014 23:00 -0,6 C -1,8 C 81 % 1006,2 hPa 0,0 l/m 0,00 h 0,00 h 0 W/m 33,4 km/h (5 Bft)
28.12.2014 00:00 -1,2 C -2,5 C 82 % 1007,7 hPa 0,0 l/m 0,00 h 0,00 h 0 W/m 34,4 km/h (5 Bft)
28.12.2014 01:00 -2,0 C -3,0 C 82 % 1009,0 hPa 0,0 l/m 0,00 h 0,00 h 0 W/m 32,2 km/h (5 Bft)
28.12.2014 02:00 -2,5 C -3,3 C 82 % 1010,7 hPa 0,0 l/m 0,00 h 0,00 h 0 W/m 31,9 km/h (5 Bft)
28.12.2014 03:00 -2,7 C -3,8 C 83 % 1012,5 hPa 0,0 l/m 0,00 h 0,00 h 0 W/m 32,1 km/h (5 Bft)
28.12.2014 04:00 -3,0 C -4,0 C 83 % 1014,1 hPa 0,0 l/m 0,00 h 0,00 h 0 W/m 36,0 km/h (5 Bft)
28.12.2014 05:00 -3,5 C -4,4 C 83 % 1015,5 hPa 0,0 l/m 0,00 h 0,00 h 0 W/m 31,2 km/h (5 Bft)
28.12.2014 06:00 -3,9 C -4,8 C 82 % 1017,2 hPa 0,0 l/m 0,00 h 0,00 h 0 W/m 28,7 km/h (4 Bft)
28.12.2014 07:00 -4,2 C -5,0 C 81 % 1019,0 hPa 0,0 l/m 0,00 h 0,00 h 0 W/m 27,9 km/h (4 Bft)
28.12.2014 08:00 -4,4 C -5,3 C 81 % 1020,8 hPa 0,0 l/m 0,07 h 0,00 h 8 W/m 25,0 km/h (4 Bft)
28.12.2014 09:00 -4,3 C -5,0 C 81 % 1023,0 hPa 0,0 l/m 0,43 h 0,00 h 45 W/m 22,7 km/h (4 Bft)
28.12.2014 10:00 -3,8 C -4,4 C 81 % 1024,9 hPa 0,0 l/m 1,00 h 0,00 h 138 W/m 22,7 km/h (4 Bft)
28.12.2014 11:00 -3,0 C -3,8 C 79 % 1025,9 hPa 0,0 l/m 1,00 h 0,00 h 217 W/m 23,3 km/h (4 Bft)
28.12.2014 12:00 -1,9 C -2,9 C 75 % 1026,8 hPa 0,0 l/m 0,97 h 0,00 h 241 W/m 20,8 km/h (4 Bft)
28.12.2014 13:00 -1,4 C -2,3 C 71 % 1027,7 hPa 0,2 l/m 1,00 h 0,00 h 209 W/m 19,5 km/h (3 Bft)
28.12.2014 14:00 -1,2 C -2,2 C 77 % 1028,4 hPa 0,2 l/m 1,00 h 0,00 h 133 W/m 11,7 km/h (2 Bft)
28.12.2014 15:00 -1,1 C -2,4 C 81 % 1029,3 hPa 0,0 l/m 0,17 h 0,00 h 49 W/m 11,0 km/h (2 Bft)
28.12.2014 16:00 -1,7 C -3,6 C 83 % 1030,1 hPa 0,0 l/m 0,20 h 0,00 h 13 W/m 5,7 km/h (1 Bft)
28.12.2014 17:00 -2,8 C -5,1 C 84 % 1030,9 hPa 0,0 l/m 0,00 h 0,00 h 0 W/m 4,5 km/h (1 Bft)
28.12.2014 18:00 -3,4 C -4,8 C 88 % 1032,3 hPa 0,0 l/m 0,00 h 0,00 h 0 W/m 6,8 km/h (2 Bft)
28.12.2014 19:00 -3,8 C -5,8 C 89 % 1033,1 hPa 0,0 l/m 0,00 h 0,00 h 0 W/m 3,1 km/h (1 Bft)
28.12.2014 20:00 -4,4 C -5,5 C 90 % 1033,5 hPa 0,0 l/m 0,00 h 0,00 h 0 W/m 5,0 km/h (1 Bft)
28.12.2014 21:00 -4,2 C -4,7 C 91 % 1033,7 hPa 0,0 l/m 0,00 h 0,00 h 0 W/m 7,8 km/h (2 Bft)
28.12.2014 22:00 -3,8 C -4,3 C 92 % 1033,6 hPa 0,0 l/m 0,00 h 0,00 h 0 W/m 8,7 km/h (2 Bft)
28.12.2014 23:00 -3,3 C -3,9 C 93 % 1033,4 hPa 0,0 l/m 0,00 h 0,00 h 0 W/m 10,7 km/h (2 Bft)
Min-Datum _ 28.12.14 28.12.14 28.12.14 27.12.14 - - - - 28.12.14
_ Min-Zeit 08:50 19:24 13:12 12:42 - - - - 16:44
Minimum _ -4,5 C -6,1 C 70 % 995,7 hPa - - - - 0,0 km/h (0 Bft)
Max-Datum _ 22.12.14 22.12.14 24.12.14 28.12.14 25.12.14 25.12.14 22.12.14 25.12.14 22.12.14
_ Max-Zeit 18:48 18:56 16:04 21:28 13:18 09:00 14:32 12:05 10:12
Maximum _ 11,7 C 10,6 C 98 % 1033,8 hPa 3,4 l/m 0,03 h 0,03 h 271 W/m 75,3 km/h
W-SW (9 Bft)
Durchschnitt _ 4,6 C 3,4 C 91 % 1018,3 hPa #19,6 l/m #10:08 h #22:38 h 52 W/m 26,8 km/h (4 Bft)
© 2015 W. Hausmann